Regional Weather Roundup
Issued by NWS Northern Indiana

Home | Current Version | Previous Version | Text Only | Print | Product List | Glossary On
Versions: 1 2 3 4 5 6 7 8 9 10 11 12 13 14 15 16 17 18 19 20 21 22 23 24 25 26 27 28 29 30 31 32 33 34 35 36 37 38 39 40 41 42 43 44 45 46 47 48 49 50
000
ASUS43 KIWX 301300
RWRIWX

KIWX WEATHER ROUNDUP
NATIONAL WEATHER SERVICE NORTHERN INDIANA
900 AM EDT SAT AUG 30 2014

NOTE: "FAIR" INDICATES FEW OR NO CLOUDS BELOW 12,000 FEET WITH NO
SIGNIFICANT WEATHER AND/OR OBSTRUCTIONS TO VISIBILITY.

* THESE STATIONS ARE NOT UNDER NWS QUALITY CONTROL. THEY ALSO MAY NOT
  REPORT WEATHER SUCH AS PRECIPITATION OR FOG.

INZ001>027-301400-
NORTHERN INDIANA

CITY           SKY/WX    TMP DP  RH WIND       PRES   REMARKS
GARY*          PTSUNNY   75  70  83 S6        29.89R
VALPARAISO     PTSUNNY   73  69  87 SW12      29.91R
KNOX*          CLOUDY    72  67  83 S9G16     29.91F
SOUTH BEND     CLOUDY    73  69  87 S10       29.92S
GOSHEN         CLOUDY    74  67  78 S10       29.93F
MONTICELLO*    CLOUDY    72  68  89 S9        29.94S
ANGOLA*        MOSUNNY   72  64  78 SW7       29.96S
FORT WAYNE     CLOUDY    72  64  76 S10       29.98S

$$
INZ028>050-301400-
CENTRAL INDIANA

CITY           SKY/WX    TMP DP  RH WIND       PRES   REMARKS
LAFAYETTE      CLOUDY    72  68  87 VRB7      29.95R
KOKOMO*        CLOUDY    72  64  78 S13       29.97F
MUNCIE*        CLOUDY    73  63  70 S8        30.01S
INDIANAPOLIS   RAIN      71  67  87 S14G21    30.00R FOG

$$
MIZ043>046-050>051-056>058-064>065-071>073-077>080-301400-
SOUTHWEST LOWER MICHIGAN

CITY           SKY/WX    TMP DP  RH WIND       PRES   REMARKS
BATTLE CREEK   CLOUDY    74  66  76 S12       29.93S
BENTON HARBOR  CLOUDY    72  69  90 S7        29.89R
COLDWATER*     PTSUNNY   72  68  89 S8        29.95S
HILLSDALE*     PTSUNNY   71  68  89 S5        29.97F
HOLLAND        CLOUDY    76  70  82 S14       29.88R
GRAND RAPIDS   CLOUDY    72  71  97 S10       29.89R
KALAMAZOO      CLOUDY    72  68  87 S9        29.92S
STURGIS*         N/A     72  68  88 S8        29.93F
THREE RIVERS*  PTSUNNY   73  68  83 S10G16    29.93S

$$
OHZ001>008-015>018-024>025-301400-
NORTHWEST OHIO

CITY           SKY/WX    TMP DP  RH WIND       PRES   REMARKS
DEFIANCE       PTSUNNY   75  65  70 S12       29.97F
FINDLAY        SUNNY     75  65  70 S12       30.00F
TOLEDO EXPRESS MOSUNNY   75  65  70 S8        29.97F
TOLEDO METCALF MOSUNNY   75  64  68 S10       30.00S
LIMA           MOSUNNY   75  67  76 S9        30.02S

$$
&&


USA.gov is the U.S. government's official web portal to all federal, state and local government web resources and services.